Cincinnati northern Kentucky International Airport Cincinnati US
ICAO: KCVG
IATA: CVG
Category: Large
Scheduled Services: Yes

Elevation: 896 ft
TransAlt. 18000 ft.

Airport Communications:
APP:119.7
ATIS:134.375
CLNC DEL:127.175
DEP:126.65
GND:121.3
LOUISVILLE RDO:117.3
TWR:118.3
UNICOM:122.95

KCVG Zoom In..

If Map Doesn't Load, Click Here

Runways:

(A) RW 09 length 12000 ft width 150 ft
ILS 111.90 / hdg 94

(B) RW 18C length 11000 ft width 150 ft
ILS 111.55 / hdg 184

(C) RW 18L length 10000 ft width 150 ft
ILS 110.15 / hdg 184

(D) RW 18R length 8000 ft width 150 ft
ILS 110.75 / hdg 184

(E) RW 27 length 12000 ft width 150 ft
ILS 108.70 / hdg 274

(F) RW 36C length 11000 ft width 150 ft
ILS 109.90 / hdg 4

(G) RW 36L length 8000 ft width 150 ft
ILS 110.75 / hdg 4

(H) RW 36R length 10000 ft width 150 ft
ILS 110.35 / hdg 4

Location; KCVG
Day. 24 / Time. 04.52 Zulu
* Altimeter: 30.11
* Temperature: 18° c. 64.4°f.
* Wind from: 100° Speed 08 kn.
Dewpoint: 15° c.
Visibility: 10 Statute Miles.
Clouds: Overcast 1200 ft.

KCVG 240452Z 10008KT 10SM OVC012 18/15 A3011 RMK AO2 SLP191 T01780150 402220144


Wind From 100°
Speed 08 kn.

 
 
jpsmedia.com for Web Design worldairports.se 2018   terms of use